Flag for West Bank Weather past 2 weeks in Nablus, West Bank

Now
63 °F

Passing clouds.


Feels Like: 63 °F
Forecast: 52 / 73 °F
Wind: 5 mph from South

Location: Ben Gurion International Airport

Current Time: May 5, 2015 at 2:20:06 AM

Latest Report: May 5, 2015 at 1:50 AM


Visibility: N/A

Pressure: 29.89 "Hg

Humidity: 73%

Dew point: 54 °F

Location of NablusLocation

Historic Weather in Nablus — Graph

°F

Nablus temperature yesterday

Maximum temperature yesterday: 72 °F (at 10:20 AM)
Minimum temperature yesterday: 63 °F (at 5:50 AM)
Average temperature yesterday: 67 °F

Past Weeks' High & Low Weather Summary

 TemperatureHumidityPressure
High91 °F (Apr 29, 4:50 PM)88% (Apr 20, 3:50 AM)30.24 "Hg (Apr 20, 3:50 AM)
Low50 °F (Apr 25, 4:20 AM)12% (Apr 20, 3:50 PM)29.83 "Hg (Apr 20, 9:50 PM)
Average68 °F58%29.98 "Hg
* Reported Apr 20 1:20 AM — May 5 1:20 AM, Nablus, Weather by CustomWeather, © 2015

Note: Actual official high and low records may vary slightly from our data, if they occured in-between our weather recording intervals... More about our weather records

Advertising

Nablus weather history for previous 24 hours

 ConditionsComfort  
Time TempWeatherWind HumidityBarometerVisibility
1:20 AM
Tue, May 5
63 °FPassing clouds.5 mph77%29.89 "HgN/A
12:50 AM63 °FPassing clouds.5 mph73%29.89 "HgN/A
12:20 AM63 °FPassing clouds.3 mph73%29.89 "HgN/A
11:50 PM
Mon, May 4
64 °FPassing clouds.3 mph73%29.92 "HgN/A
11:20 PM64 °FPassing clouds.5 mph68%29.92 "HgN/A
10:50 PM64 °FPassing clouds.2 mph73%29.92 "HgN/A
10:20 PM64 °FPassing clouds.3 mph73%29.92 "HgN/A
9:50 PM64 °FClear.3 mph73%29.92 "Hg10 mi
9:20 PM64 °FClear.5 mph73%29.92 "Hg10 mi
8:50 PM66 °FClear.6 mph68%29.92 "Hg10 mi
8:20 PM66 °FSunny.7 mph68%29.92 "Hg10 mi
7:50 PM66 °FSunny.9 mph68%29.89 "Hg10 mi
7:20 PM66 °FPassing clouds.9 mph68%29.89 "HgN/A
6:50 PM68 °FPassing clouds.10 mph64%29.89 "HgN/A
6:20 PM70 °FPassing clouds.9 mph60%29.89 "HgN/A
5:50 PM70 °FPassing clouds.10 mph60%29.89 "HgN/A
5:20 PM70 °FPassing clouds.10 mph60%29.89 "HgN/A
4:50 PM72 °FPassing clouds.10 mph57%29.89 "HgN/A
4:20 PM72 °FPassing clouds.12 mph57%29.89 "HgN/A
3:50 PM72 °FPassing clouds.12 mph57%29.89 "HgN/A
3:20 PM72 °FPassing clouds.13 mph57%29.89 "HgN/A
2:50 PM72 °FPassing clouds.9 mph57%29.89 "HgN/A
2:20 PM72 °FPassing clouds.12 mph53%29.89 "HgN/A
1:50 PM72 °FPassing clouds.10 mph53%29.89 "HgN/A
1:20 PM72 °FPassing clouds.12 mph53%29.92 "HgN/A
12:50 PM72 °FPassing clouds.10 mph53%29.92 "HgN/A
12:20 PM72 °FPassing clouds.10 mph53%29.92 "HgN/A
11:50 AM72 °FScattered clouds.8 mph53%29.92 "HgN/A
11:20 AM72 °FScattered clouds.10 mph53%29.92 "HgN/A
10:50 AM72 °FScattered clouds.6 mph53%29.92 "HgN/A
10:20 AM72 °FScattered clouds.3 mph53%29.92 "HgN/A
9:50 AM68 °FPartly sunny.8 mph60%29.92 "HgN/A
9:20 AM68 °FBroken clouds.3 mph60%29.92 "HgN/A
8:50 AM68 °FPartly sunny.5 mph60%29.92 "HgN/A
8:20 AM66 °FPartly sunny.3 mph68%29.92 "HgN/A
7:50 AM64 °FBroken clouds.3 mph73%29.92 "HgN/A
7:20 AM64 °FScattered clouds.6 mph73%29.92 "HgN/A
6:50 AM63 °FPassing clouds.6 mph73%29.92 "HgN/A
6:20 AM63 °FPassing clouds.6 mph73%29.92 "HgN/A
5:50 AM63 °FPassing clouds.3 mph73%29.92 "HgN/A
5:20 AM64 °FPassing clouds.3 mph68%29.89 "HgN/A
4:50 AM64 °FPassing clouds.2 mph68%29.89 "HgN/A
4:20 AM64 °FPassing clouds.1 mph68%29.92 "HgN/A
3:50 AM64 °FPassing clouds.2 mph68%29.92 "HgN/A
3:20 AM64 °FPassing clouds.2 mph68%29.92 "HgN/A
2:50 AM64 °FPassing clouds.2 mph68%29.92 "HgN/A
2:20 AM64 °FPassing clouds.3 mph68%29.89 "HgN/A
Weather by CustomWeather, © 2015

See weather overviewHow to use our weather pages